| time (UTC) | temp C | wind direction | speed KPH | gust KPH | rain 1hr cm | rain 24hr cm | rain mn cm | humidity % | barometer mb |
| 20260505025006 | 18 | 40 | 1.6 | 8.0 | 0.00 | 0.00 | 0.00 | 68 | 1031.7 |
| 20260505024505 | 19 | 18 | 1.6 | 4.8 | 0.00 | 0.00 | 0.00 | 67 | 1031.7 |
| 20260505024006 | 19 | 33 | 1.6 | 4.8 | 0.00 | 0.00 | 0.00 | 68 | 1031.7 |
| 20260505023506 | 19 | 39 | 1.6 | 8.0 | 0.00 | 0.00 | 0.00 | 67 | 1031.7 |
| 20260505023006 | 19 | 113 | 3.2 | 8.0 | 0.00 | 0.00 | 0.00 | 65 | 1031.7 |
| 20260505022506 | 19 | 5 | 1.6 | 4.8 | 0.00 | 0.00 | 0.00 | 66 | 1031.7 |
| 20260505022005 | 19 | 36 | 3.2 | 8.0 | 0.00 | 0.00 | 0.00 | 67 | 1031.8 |
| 20260505021506 | 19 | 46 | 3.2 | 8.0 | 0.00 | 0.00 | 0.00 | 67 | 1031.8 |
| 20260505021006 | 19 | 71 | 3.2 | 4.8 | 0.00 | 0.00 | 0.00 | 67 | 1031.8 |
| 20260505020005 | 20 | 44 | 1.6 | 8.0 | 0.00 | 0.00 | 0.00 | 67 | 1032.0 |
| 20260505015505 | 20 | 13 | 3.2 | 8.0 | 0.00 | 0.00 | 0.00 | 66 | 1032.1 |
| 20260505015005 | 20 | 35 | 1.6 | 11.3 | 0.00 | 0.00 | 0.00 | 67 | 1032.1 |
| 20260505014505 | 20 | 46 | 4.8 | 11.3 | 0.00 | 0.00 | 0.00 | 67 | 1032.2 |
| 20260505014005 | 20 | 36 | 3.2 | 4.8 | 0.00 | 0.00 | 0.00 | 65 | 1032.2 |
| 20260505013505 | 20 | 100 | 3.2 | 4.8 | 0.00 | 0.00 | 0.00 | 64 | 1032.2 |
| 20260505012005 | 19 | 2 | 1.6 | 4.8 | 0.00 | 0.00 | 0.00 | 64 | 1032.3 |
| 20260505011506 | 19 | 144 | 1.6 | 4.8 | 0.00 | 0.00 | 0.00 | 64 | 1032.3 |
| 20260505011005 | 20 | 92 | 1.6 | 4.8 | 0.00 | 0.00 | 0.00 | 65 | 1032.3 |
| 20260505010005 | 19 | 104 | 3.2 | 4.8 | 0.00 | 0.00 | 0.00 | 66 | 1032.6 |
| 20260505005506 | 19 | 121 | 1.6 | 4.8 | 0.00 | 0.00 | 0.00 | 64 | 1032.7 |
| 20260505005006 | 19 | 113 | 3.2 | 4.8 | 0.00 | 0.00 | 0.00 | 65 | 1032.8 |
| 20260505004505 | 19 | 189 | 3.2 | 4.8 | 0.00 | 0.00 | 0.00 | 64 | 1032.8 |
| 20260505004005 | 19 | 69 | 1.6 | 4.8 | 0.00 | 0.00 | 0.00 | 67 | 1032.8 |
| 20260505003506 | 20 | 93 | 1.6 | 4.8 | 0.00 | 0.00 | 0.00 | 66 | 1032.9 |
| 20260505003005 | 19 | 187 | 1.6 | 4.8 | 0.00 | 0.00 | 0.00 | 65 | 1033.1 |
| 20260505002005 | 20 | 312 | 1.6 | 3.2 | 0.00 | 0.00 | 0.00 | 65 | 1033.3 |
| 20260505001505 | 20 | 84 | 0.0 | 1.6 | 0.00 | 0.00 | 0.00 | 67 | 1033.3 |
| 20260505001006 | 19 | 87 | 1.6 | 3.2 | 0.00 | 0.00 | 0.00 | 66 | 1033.3 |
| 20260504235505 | 18 | 17 | 3.2 | 4.8 | 0.00 | 0.00 | 0.00 | 65 | 1033.4 |
| 20260504235006 | 18 | 295 | 1.6 | 4.8 | 0.00 | 0.00 | 0.00 | 64 | 1033.6 |
| 20260504234506 | 18 | 150 | 1.6 | 4.8 | 0.00 | 0.00 | 0.00 | 63 | 1033.7 |
| 20260504234005 | 18 | 147 | 1.6 | 4.8 | 0.00 | 0.00 | 0.00 | 66 | 1033.7 |
| 20260504233505 | 18 | 124 | 1.6 | 4.8 | 0.00 | 0.00 | 0.00 | 65 | 1033.8 |
| 20260504233005 | 18 | 313 | 1.6 | 4.8 | 0.00 | 0.00 | 0.00 | 66 | 1033.8 |
| 20260504232506 | 18 | 253 | 1.6 | 4.8 | 0.00 | 0.00 | 0.00 | 66 | 1033.8 |
| 20260504232006 | 18 | 306 | 1.6 | 4.8 | 0.00 | 0.00 | 0.00 | 67 | 1033.9 |
| 20260504231006 | 18 | 20 | 1.6 | 4.8 | 0.00 | 0.00 | 0.00 | 68 | 1034.0 |
| 20260504230005 | 18 | 89 | 1.6 | 4.8 | 0.00 | 0.00 | 0.00 | 68 | 1034.0 |
| 20260504225505 | 18 | 78 | 0.0 | 4.8 | 0.00 | 0.00 | 0.00 | 71 | 1034.1 |
| 20260504225006 | 17 | 35 | 1.6 | 3.2 | 0.00 | 0.00 | 0.00 | 71 | 1034.1 |
| 20260504223506 | 17 | 123 | 1.6 | 4.8 | 0.00 | 0.00 | 0.00 | 72 | 1034.0 |
| 20260504223005 | 17 | 151 | 1.6 | 4.8 | 0.00 | 0.00 | 0.00 | 73 | 1033.9 |
| 20260504222505 | 17 | 152 | 1.6 | 4.8 | 0.00 | 0.00 | 0.00 | 72 | 1033.9 |
| 20260504222005 | 17 | 146 | 1.6 | 4.8 | 0.00 | 0.00 | 0.00 | 74 | 1033.9 |
| 20260504221505 | 16 | 209 | 3.2 | 4.8 | 0.00 | 0.00 | 0.00 | 74 | 1033.9 |
| 20260504220006 | 16 | 138 | 0.0 | 3.2 | 0.00 | 0.00 | 0.00 | 77 | 1033.9 |
| 20260504215005 | 16 | 160 | 1.6 | 8.0 | 0.00 | 0.00 | 0.00 | 75 | 1033.9 |
| 20260504214506 | 16 | 202 | 3.2 | 8.0 | 0.00 | 0.00 | 0.00 | 76 | 1033.9 |
| 20260504214006 | 16 | 184 | 1.6 | 4.8 | 0.00 | 0.00 | 0.00 | 76 | 1033.9 |
| 20260504213505 | 16 | 151 | 1.6 | 4.8 | 0.00 | 0.00 | 0.00 | 77 | 1033.9 |
| 20260504213006 | 15 | 128 | 0.0 | 4.8 | 0.00 | 0.00 | 0.00 | 77 | 1033.9 |
| 20260504212505 | 15 | 179 | 1.6 | 4.8 | 0.00 | 0.00 | 0.00 | 78 | 1033.8 |
| 20260504212006 | 15 | 158 | 1.6 | 4.8 | 0.00 | 0.00 | 0.00 | 79 | 1033.8 |
| 20260504211505 | 15 | 159 | 1.6 | 8.0 | 0.00 | 0.00 | 0.00 | 79 | 1033.8 |
| 20260504211005 | 15 | 189 | 4.8 | 8.0 | 0.00 | 0.00 | 0.00 | 79 | 1033.8 |
| 20260504210005 | 15 | 162 | 3.2 | 8.0 | 0.00 | 0.00 | 0.00 | 78 | 1033.9 |
| 20260504205505 | 15 | 150 | 1.6 | 8.0 | 0.00 | 0.00 | 0.00 | 79 | 1033.9 |
| 20260504205005 | 14 | 165 | 1.6 | 9.7 | 0.00 | 0.00 | 0.00 | 81 | 1033.9 |
| 20260504204505 | 14 | 178 | 4.8 | 9.7 | 0.00 | 0.00 | 0.00 | 82 | 1033.9 |
| 20260504204005 | 13 | 196 | 3.2 | 4.8 | 0.00 | 0.00 | 0.00 | 84 | 1033.9 |
| 20260504203505 | 13 | 189 | 1.6 | 4.8 | 0.00 | 0.00 | 0.00 | 85 | 1034.0 |
| 20260504203005 | 12 | 201 | 0.0 | 4.8 | 0.00 | 0.00 | 0.00 | 87 | 1034.0 |
| 20260504202505 | 12 | 101 | 1.6 | 4.8 | 0.00 | 0.00 | 0.00 | 88 | 1033.9 |
| 20260504202006 | 12 | 140 | 3.2 | 4.8 | 0.00 | 0.00 | 0.00 | 88 | 1033.9 |
| 20260504201506 | 12 | 141 | 0.0 | 4.8 | 0.00 | 0.00 | 0.00 | 89 | 1034.0 |
| 20260504201005 | 12 | 183 | 0.0 | 0.0 | 0.00 | 0.00 | 0.00 | 89 | 1034.0 |
| 20260504200006 | 12 | 183 | 0.0 | 0.0 | 0.00 | 0.00 | 0.00 | 88 | 1033.9 |
| 20260504195505 | 12 | 183 | 0.0 | 0.0 | 0.00 | 0.00 | 0.00 | 88 | 1033.9 |
| 20260504195005 | 12 | 183 | 0.0 | 0.0 | 0.00 | 0.00 | 0.00 | 88 | 1033.9 |
| 20260504194505 | 12 | 183 | 0.0 | 0.0 | 0.00 | 0.00 | 0.00 | 88 | 1033.9 |
| 20260504194005 | 12 | 183 | 0.0 | 0.0 | 0.00 | 0.00 | 0.00 | 87 | 1033.8 |
| 20260504193505 | 12 | 198 | 0.0 | 0.0 | 0.00 | 0.00 | 0.00 | 87 | 1033.8 |
| 20260504193005 | 12 | 198 | 0.0 | 0.0 | 0.00 | 0.00 | 0.00 | 87 | 1033.9 |
| 20260504192506 | 12 | 198 | 0.0 | 0.0 | 0.00 | 0.00 | 0.00 | 87 | 1033.8 |
| 20260504192005 | 12 | 198 | 0.0 | 0.0 | 0.00 | 0.00 | 0.00 | 87 | 1033.8 |
| 20260504191505 | 12 | 198 | 0.0 | 0.0 | 0.00 | 0.00 | 0.00 | 87 | 1033.8 |
| 20260504190006 | 11 | 89 | 0.0 | 0.0 | 0.00 | 0.00 | 0.00 | 87 | 1033.7 |
| 20260504185506 | 12 | 89 | 0.0 | 0.0 | 0.00 | 0.00 | 0.00 | 87 | 1033.5 |
| 20260504184005 | 12 | 174 | 0.0 | 0.0 | 0.00 | 0.00 | 0.00 | 86 | 1033.5 |
| 20260504183505 | 12 | 278 | 0.0 | 0.0 | 0.00 | 0.00 | 0.00 | 86 | 1033.5 |
| 20260504183005 | 12 | 298 | 0.0 | 0.0 | 0.00 | 0.00 | 0.00 | 87 | 1033.5 |
| 20260504182505 | 12 | 325 | 0.0 | 0.0 | 0.00 | 0.00 | 0.00 | 87 | 1033.6 |
| 20260504182005 | 12 | 320 | 0.0 | 0.0 | 0.00 | 0.00 | 0.00 | 87 | 1033.6 |
| 20260504181505 | 12 | 289 | 0.0 | 0.0 | 0.00 | 0.00 | 0.00 | 87 | 1033.4 |
| 20260504181005 | 12 | 153 | 0.0 | 0.0 | 0.00 | 0.00 | 0.00 | 87 | 1033.4 |
| 20260504180006 | 11 | 73 | 0.0 | 3.2 | 0.00 | 0.00 | 0.00 | 87 | 1033.4 |
| 20260504175505 | 12 | 83 | 0.0 | 4.8 | 0.00 | 0.00 | 0.00 | 87 | 1033.4 |
| 20260504173505 | 11 | 141 | 0.0 | 4.8 | 0.00 | 0.00 | 0.00 | 88 | 1033.4 |
| 20260504173006 | 11 | 133 | 1.6 | 4.8 | 0.00 | 0.00 | 0.00 | 88 | 1033.4 |
| 20260504172505 | 11 | 158 | 3.2 | 4.8 | 0.00 | 0.00 | 0.00 | 88 | 1033.4 |
| 20260504172005 | 11 | 138 | 3.2 | 4.8 | 0.00 | 0.00 | 0.00 | 88 | 1033.4 |
| 20260504171506 | 11 | 146 | 1.6 | 4.8 | 0.00 | 0.00 | 0.00 | 89 | 1033.4 |
| 20260504171005 | 11 | 178 | 0.0 | 0.0 | 0.00 | 0.00 | 0.00 | 89 | 1033.4 |
| 20260504151005 | 11 | 142 | 3.2 | 9.7 | 0.00 | 0.00 | 0.00 | 85 | 1033.9 |
| 20260504141005 | 11 | 140 | 1.6 | 3.2 | 0.00 | 0.00 | 0.00 | 87 | 1034.7 |
| 20260504082005 | 11 | 139 | 0.0 | 0.0 | 0.00 | 0.00 | 0.00 | 87 | 1035.3 |
| 20260504081006 | 11 | 143 | 0.0 | 0.0 | 0.00 | 0.00 | 0.00 | 87 | 1035.3 |
| 20260504050006 | 15 | 15 | 0.0 | 1.6 | 0.00 | 0.00 | 0.00 | 72 | 1034.0 |
| 20260504045506 | 15 | 15 | 0.0 | 3.2 | 0.00 | 0.00 | 0.00 | 72 | 1033.9 |
| 20260504045006 | 15 | 17 | 1.6 | 3.2 | 0.00 | 0.00 | 0.00 | 71 | 1033.9 |
| 20260504044506 | 15 | 21 | 0.0 | 3.2 | 0.00 | 0.00 | 0.00 | 71 | 1033.9 |
| 20260504044006 | 16 | 11 | 1.6 | 4.8 | 0.00 | 0.00 | 0.00 | 71 | 1033.9 |
| 20260504043506 | 16 | 28 | 3.2 | 4.8 | 0.00 | 0.00 | 0.00 | 70 | 1033.9 |
| 20260504043006 | 16 | 24 | 1.6 | 4.8 | 0.00 | 0.00 | 0.00 | 69 | 1033.9 |
| 20260504042506 | 16 | 25 | 3.2 | 4.8 | 0.00 | 0.00 | 0.00 | 69 | 1033.9 |
| 20260504042006 | 16 | 15 | 3.2 | 4.8 | 0.00 | 0.00 | 0.00 | 69 | 1033.9 |
| 20260504041506 | 16 | 23 | 3.2 | 9.7 | 0.00 | 0.00 | 0.00 | 68 | 1033.9 |
| 20260504041006 | 16 | 17 | 1.6 | 9.7 | 0.00 | 0.00 | 0.00 | 68 | 1033.9 |
| 20260504040006 | 16 | 73 | 3.2 | 9.7 | 0.00 | 0.00 | 0.00 | 68 | 1033.9 |
| 20260504035506 | 17 | 12 | 4.8 | 9.7 | 0.00 | 0.00 | 0.00 | 65 | 1033.9 |
| 20260504035006 | 17 | 7 | 3.2 | 8.0 | 0.00 | 0.00 | 0.00 | 65 | 1033.9 |
| 20260504034506 | 17 | 15 | 3.2 | 8.0 | 0.00 | 0.00 | 0.00 | 64 | 1033.9 |
| 20260504034005 | 17 | 9 | 3.2 | 4.8 | 0.00 | 0.00 | 0.00 | 65 | 1033.9 |
| 20260504033006 | 17 | 345 | 3.2 | 8.0 | 0.00 | 0.00 | 0.00 | 64 | 1033.8 |
| 20260504032506 | 17 | 3 | 1.6 | 9.7 | 0.00 | 0.00 | 0.00 | 67 | 1033.8 |
| 20260504032006 | 17 | 13 | 4.8 | 9.7 | 0.00 | 0.00 | 0.00 | 65 | 1033.8 |
| 20260504031505 | 17 | 6 | 4.8 | 8.0 | 0.00 | 0.00 | 0.00 | 65 | 1033.8 |
| 20260504031005 | 17 | 1 | 1.6 | 9.7 | 0.00 | 0.00 | 0.00 | 64 | 1033.9 |
| 20260504025505 | 17 | 312 | 3.2 | 8.0 | 0.00 | 0.00 | 0.00 | 63 | 1033.8 |